• In Russia
  • List of Countries
  • For 7 days
  • Water Temperature
  • Satellite Maps
  • Weather Map
  • Weather Widgets
  • user-avatar
    Login

    Hourly Weather Korçe

    Today, 20 May, Monday

    Time Temperature Precipitation Wind Pressure Humidity
    00:00 +9°C° 0.1 mm 2 mps 662 mmHg 96%
    01:00 +9°C° 0.1 mm 2 mps 661 mmHg 97%
    02:00 +9°C° 0.1 mm 2 mps 661 mmHg 97%
    03:00 +9°C° 0.1 mm 2 mps 661 mmHg 97%
    04:00 +9°C° 0.1 mm 2 mps 661 mmHg 97%
    05:00 +9°C° 0 mm 2 mps 662 mmHg 92%
    06:00 +10°C° 0 mm 2 mps 662 mmHg 88%
    07:00 +11°C° 0 mm 3 mps 663 mmHg 83%
    08:00 +12°C° 0 mm 3 mps 663 mmHg 76%
    09:00 +13°C° 0 mm 3 mps 664 mmHg 69%
    10:00 +14°C° 0 mm 4 mps 665 mmHg 62%
    11:00 +14°C° 0.2 mm 4 mps 665 mmHg 62%
    12:00 +14°C° 0.2 mm 4 mps 665 mmHg 63%
    13:00 +14°C° 0.2 mm 4 mps 665 mmHg 63%
    14:00 +14°C° 0.4 mm 4 mps 665 mmHg 65%
    15:00 +13°C° 0.4 mm 4 mps 664 mmHg 67%
    16:00 +13°C° 0.4 mm 3 mps 664 mmHg 69%
    17:00 +12°C° 0.2 mm 3 mps 664 mmHg 77%
    18:00 +10°C° 0.2 mm 3 mps 663 mmHg 84%
    19:00 +9°C° 0.2 mm 2 mps 663 mmHg 91%
    20:00 +8°C° 0 mm 2 mps 663 mmHg 93%
    21:00 +7°C° 0 mm 2 mps 664 mmHg 95%
    22:00 +7°C° 0 mm 2 mps 664 mmHg 96%
    23:00 +7°C° 0 mm 2 mps 664 mmHg 96%

    Tomorrow, 21 May, Tuesday

    Time Temperature Precipitation Wind Pressure Humidity
    00:00 +6°C° 0 mm 2 mps 664 mmHg 96%
    01:00 +6°C° 0 mm 2 mps 664 mmHg 96%
    02:00 +6°C° 0 mm 2 mps 664 mmHg 96%
    03:00 +6°C° 0 mm 2 mps 664 mmHg 96%
    04:00 +6°C° 0 mm 2 mps 664 mmHg 95%
    05:00 +7°C° 0 mm 2 mps 664 mmHg 87%
    06:00 +9°C° 0 mm 2 mps 665 mmHg 78%
    07:00 +10°C° 0 mm 2 mps 665 mmHg 70%
    08:00 +12°C° 0 mm 3 mps 666 mmHg 65%
    09:00 +13°C° 0 mm 3 mps 666 mmHg 61%
    10:00 +14°C° 0 mm 3 mps 667 mmHg 56%
    11:00 +14°C° 0.1 mm 3 mps 667 mmHg 56%
    12:00 +16°C° 0.1 mm 3 mps 667 mmHg 56%
    13:00 +16°C° 0.1 mm 3 mps 667 mmHg 56%
    14:00 +16°C° 0.1 mm 3 mps 667 mmHg 60%
    15:00 +14°C° 0.1 mm 3 mps 667 mmHg 63%
    16:00 +14°C° 0.1 mm 3 mps 667 mmHg 66%
    17:00 +13°C° 0.1 mm 2 mps 666 mmHg 73%
    18:00 +12°C° 0.1 mm 2 mps 666 mmHg 81%
    19:00 +10°C° 0.1 mm 1 mps 666 mmHg 88%
    20:00 +9°C° 0 mm 1 mps 666 mmHg 89%
    21:00 +9°C° 0 mm 1 mps 667 mmHg 91%
    22:00 +7°C° 0 mm 0 mps 667 mmHg 92%
    23:00 +7°C° 0 mm 0 mps 667 mmHg 92%

    Day after tomorrow, 22 May, Wednesday

    Time Temperature Precipitation Wind Pressure Humidity
    00:00 +6°C° 0 mm 0 mps 666 mmHg 92%
    01:00 +6°C° 0 mm 0 mps 666 mmHg 92%
    02:00 +7°C° 0 mm 1 mps 666 mmHg 91%
    03:00 +7°C° 0 mm 1 mps 666 mmHg 91%
    04:00 +6°C° 0 mm 1 mps 666 mmHg 90%
    05:00 +9°C° 0 mm 1 mps 667 mmHg 82%
    06:00 +10°C° 0 mm 0 mps 667 mmHg 74%
    07:00 +12°C° 0 mm 0 mps 668 mmHg 66%
    08:00 +14°C° 0 mm 1 mps 668 mmHg 60%
    09:00 +16°C° 0 mm 1 mps 669 mmHg 53%
    10:00 +17°C° 0 mm 2 mps 669 mmHg 46%
    11:00 +18°C° 0 mm 2 mps 669 mmHg 46%
    12:00 +18°C° 0 mm 2 mps 669 mmHg 45%
    13:00 +19°C° 0 mm 2 mps 669 mmHg 44%
    14:00 +18°C° 0 mm 2 mps 669 mmHg 48%
    15:00 +18°C° 0 mm 2 mps 668 mmHg 52%
    16:00 +17°C° 0 mm 2 mps 668 mmHg 56%
    17:00 +15°C° 0 mm 2 mps 667 mmHg 66%
    18:00 +14°C° 0 mm 2 mps 667 mmHg 76%
    19:00 +12°C° 0 mm 1 mps 667 mmHg 85%
    20:00 +11°C° 0 mm 1 mps 667 mmHg 87%
    21:00 +10°C° 0 mm 1 mps 667 mmHg 90%
    22:00 +9°C° 0 mm 1 mps 667 mmHg 92%
    23:00 +9°C° 0 mm 1 mps 666 mmHg 91%

    23 May, Thursday

    Time Temperature Precipitation Wind Pressure Humidity
    00:00 +9°C° 0 mm 1 mps 666 mmHg 90%
    01:00 +7°C° 0 mm 0 mps 666 mmHg 89%
    02:00 +8°C° 0 mm 1 mps 665 mmHg 86%
    03:00 +8°C° 0 mm 1 mps 665 mmHg 83%
    04:00 +8°C° 0 mm 1 mps 665 mmHg 80%
    05:00 +10°C° 0 mm 1 mps 665 mmHg 71%
    06:00 +12°C° 0 mm 1 mps 666 mmHg 62%
    07:00 +14°C° 0 mm 1 mps 667 mmHg 53%
    08:00 +15°C° 0 mm 2 mps 667 mmHg 49%
    09:00 +17°C° 0 mm 2 mps 667 mmHg 45%
    10:00 +18°C° 0 mm 2 mps 667 mmHg 42%
    11:00 +19°C° 0 mm 2 mps 667 mmHg 41%
    12:00 +19°C° 0 mm 2 mps 667 mmHg 41%
    13:00 +20°C° 0 mm 2 mps 667 mmHg 41%
    14:00 +19°C° 0.1 mm 2 mps 666 mmHg 47%
    15:00 +18°C° 0.1 mm 3 mps 666 mmHg 52%
    16:00 +18°C° 0.1 mm 3 mps 665 mmHg 57%
    17:00 +16°C° 0.5 mm 3 mps 665 mmHg 67%
    18:00 +14°C° 0.5 mm 2 mps 664 mmHg 76%
    19:00 +12°C° 0.5 mm 2 mps 664 mmHg 86%
    20:00 +12°C° 0.6 mm 2 mps 664 mmHg 87%
    21:00 +11°C° 0.6 mm 1 mps 664 mmHg 88%
    22:00 +11°C° 0.6 mm 1 mps 664 mmHg 90%
    23:00 +10°C° 0.4 mm 1 mps 664 mmHg 90%

    24 May, Friday

    Time Temperature Precipitation Wind Pressure Humidity
    00:00 +10°C° 0.4 mm 1 mps 663 mmHg 90%
    01:00 +10°C° 0.4 mm 1 mps 663 mmHg 90%
    02:00 +10°C° 0 mm 1 mps 663 mmHg 91%
    03:00 +9°C° 0 mm 1 mps 663 mmHg 91%
    04:00 +9°C° 0 mm 1 mps 663 mmHg 91%
    05:00 +11°C° 0 mm 1 mps 663 mmHg 86%
    06:00 +12°C° 0 mm 1 mps 663 mmHg 81%
    07:00 +14°C° 0 mm 1 mps 664 mmHg 76%
    08:00 +15°C° 0.2 mm 2 mps 664 mmHg 70%
    09:00 +16°C° 0.2 mm 2 mps 664 mmHg 64%
    10:00 +17°C° 0.2 mm 2 mps 664 mmHg 57%
    11:00 +18°C° 1.2 mm 2 mps 664 mmHg 59%
    12:00 +18°C° 1.2 mm 2 mps 664 mmHg 60%
    13:00 +18°C° 1.2 mm 2 mps 664 mmHg 62%
    14:00 +17°C° 1.2 mm 2 mps 663 mmHg 66%
    15:00 +17°C° 1.2 mm 3 mps 663 mmHg 69%
    16:00 +16°C° 1.2 mm 3 mps 663 mmHg 73%
    17:00 +15°C° 0.4 mm 2 mps 662 mmHg 79%
    18:00 +13°C° 0.4 mm 2 mps 662 mmHg 85%
    19:00 +12°C° 0.4 mm 1 mps 662 mmHg 92%
    20:00 +11°C° 0 mm 1 mps 662 mmHg 93%
    21:00 +10°C° 0 mm 1 mps 662 mmHg 93%
    22:00 +8°C° 0 mm 0 mps 662 mmHg 94%
    23:00 +9°C° 0 mm 1 mps 662 mmHg 94%

    25 May, Saturday

    Time Temperature Precipitation Wind Pressure Humidity
    00:00 +9°C° 0 mm 1 mps 661 mmHg 94%
    01:00 +8°C° 0 mm 1 mps 661 mmHg 94%
    02:00 +8°C° 0 mm 1 mps 661 mmHg 95%
    03:00 +8°C° 0 mm 1 mps 661 mmHg 96%
    04:00 +7°C° 0 mm 2 mps 661 mmHg 96%
    05:00 +8°C° 0 mm 2 mps 662 mmHg 91%
    06:00 +10°C° 0 mm 2 mps 662 mmHg 86%
    07:00 +12°C° 0 mm 2 mps 663 mmHg 81%
    08:00 +14°C° 0 mm 2 mps 663 mmHg 72%
    09:00 +16°C° 0 mm 2 mps 664 mmHg 63%
    10:00 +17°C° 0 mm 2 mps 664 mmHg 54%
    11:00 +18°C° 0 mm 2 mps 664 mmHg 53%
    12:00 +18°C° 0 mm 2 mps 664 mmHg 52%
    13:00 +19°C° 0 mm 2 mps 664 mmHg 51%
    14:00 +18°C° 0.5 mm 2 mps 663 mmHg 56%
    15:00 +18°C° 0.5 mm 2 mps 663 mmHg 61%
    16:00 +17°C° 0.5 mm 2 mps 663 mmHg 66%
    17:00 +16°C° 0.2 mm 2 mps 662 mmHg 73%
    18:00 +14°C° 0.2 mm 2 mps 662 mmHg 81%
    19:00 +12°C° 0.2 mm 2 mps 661 mmHg 88%
    20:00 +10°C° 0 mm 2 mps 661 mmHg 90%
    21:00 +9°C° 0 mm 2 mps 661 mmHg 92%
    22:00 +9°C° 0 mm 2 mps 661 mmHg 94%
    23:00 +8°C° 0 mm 2 mps 661 mmHg 93%
    Show more